Location: ČR
(50.0000°N, 15.0000°E)
Time: 19:35:07
(UTC+00:00)

Vanguard 3 - Pass Details

Date: 26 October 2021
Orbit: 508 x 3260 km, 33.4° (Epoch: 04 December)

Event Time Altitude Azimuth Distance (km) Brightness Sun altitude
Rises 17:40:42 0° 244° (WSW) 3,580 11.5 -18.8°
Reaches altitude 10° 17:43:19 10° 230° (SW) 2,934 10.6 -19.2°
Maximum altitude 17:49:12 26° 177° (S) 2,606 9.6 -20.2°
Enters shadow 17:55:34 15° 137° (SE) 3,903 10.2 -21.2°
Drops below altitude 10° 17:58:05 10° 129° (SE) 4,586 - -21.6°
Sets 18:03:30 0° 119° (ESE) 6,097 - -22.4°
